GEFSCGP_con_cape1000_168.txt.gz
Probability
0 0 0 0 0 0 0 0 0 0 0 0 0 3 6 13 16 29 45 68 81 90 90 94 94 94 94 97 97 97 97 97 94 90 87 87 87 84 84 77 77 71 81 74
0 0 0 0 0 0 0 0 0 0 0 0 0 3 6 6 29 29 45 74 84 90 94 94 94 94 94 97 97 94 97 100 100 97 90 90 90 87 87 81 77 74 81 84
0 0 0 0 0 0 0 0 0 0 0 0 0 0 13 16 29 29 42 65 81 84 94 94 94 94 94 97 97 94 94 97 97 94 87 84 84 87 81 77 87 81 74 77
0 0 0 0 0 0 0 0 0 0 0 0 0 0 10 16 29 29 39 52 74 81 94 94 94 90 94 94 97 97 97 97 94 94 94 84 84 77 77 74 81 77 74 77
0 0 0 0 0 0 0 0 0 0 0 0 0 0 6 19 26 29 39 52 61 77 90 94 90 94 94 94 94 97 97 97 90 94 90 90 81 87 81 74 68 81 77 68
0 0 0 0 0 0 0 0 0 0 0 0 0 0 3 6 16 26 39 48 68 71 81 87 90 94 94 94 94 94 94 87 87 84 84 90 84 81 74 71 65 65 61 61
0 0 0 0 0 0 0 0 0 0 0 0 0 0 3 6 13 16 32 45 55 65 81 90 90 94 94 94 90 87 87 87 81 81 81 81 84 81 74 74 68 58 52 58
0 0 0 0 0 0 0 0 0 0 0 0 0 0 3 3 10 19 32 48 48 68 81 90 94 94 90 90 87 87 84 84 81 84 84 81 77 81 81 74 65 61 58 55
0 0 0 0 0 0 0 0 0 0 0 0 0 0 6 6 13 13 23 45 48 65 81 84 87 87 87 87 87 87 87 87 87 84 84 81 81 77 68 71 74 68 61 55
0 0 0 0 0 0 0 0 0 0 0 0 0 0 10 13 16 13 32 42 55 65 71 84 84 87 87 84 87 87 84 87 84 81 81 74 77 74 68 68 71 71 71 68
0 0 0 0 0 0 0 0 0 0 0 0 0 0 6 19 23 26 35 39 55 65 77 81 87 84 84 84 81 84 84 84 84 84 77 77 74 68 61 61 58 58 61 58
0 0 0 0 0 0 0 0 0 0 10 0 0 0 0 3 16 23 45 55 65 68 77 84 87 81 81 81 81 81 81 81 84 77 77 68 68 68 65 58 58 61 58 58
0 0 0 0 0 0 0 0 0 0 0 0 0 0 0 0 10 23 52 58 71 81 87 87 90 84 84 81 81 81 74 74 71 71 68 68 65 65 65 65 61 58 58 61
0 0 0 0 0 0 0 0 0 0 0 0 0 0 0 3 10 26 65 71 71 90 94 94 94 94 90 87 84 74 77 74 68 65 68 65 65 65 61 61 58 52 55 55
0 0 0 0 0 0 0 0 0 0 0 0 0 0 3 13 23 42 61 77 81 90 90 94 90 94 90 84 81 81 77 71 65 61 61 61 61 65 61 55 52 52 52 45
0 0 0 0 0 0 0 0 0 0 0 0 0 0 6 19 48 55 61 81 81 87 87 87 94 94 90 84 81 81 74 68 65 65 65 61 61 68 58 58 48 42 45 42
0 0 0 0 0 0 0 0 0 0 0 0 0 0 16 39 58 65 74 81 87 84 87 87 94 90 90 84 84 81 71 68 61 61 58 58 58 58 48 52 45 45 45 42
6 3 6 0 0 0 0 0 0 0 0 0 6 16 26 52 58 74 81 84 90 87 90 90 94 87 84 84 81 77 71 71 65 65 55 55 55 45 48 42 45 42 35 35
6 45 0 0 0 0 0 0 0 0 0 6 16 19 29 45 61 71 77 87 87 90 90 87 81 84 81 81 71 71 65 65 65 58 58 52 48 45 42 39 32 35 35 29
3 19 0 0 0 0 3 0 0 0 10 29 39 45 48 48 55 71 81 84 84 87 90 84 77 77 74 74 71 65 61 58 61 48 52 48 45 42 42 32 32 29 23 19
0 3 0 0 0 0 10 3 3 0 29 55 58 48 58 77 81 87 87 90 87 87 77 77 71 71 68 65 61 61 61 52 48 39 42 39 42 35 29 26 23 23 16 16
0 0 0 3 0 6 23 16 42 77 84 74 71 71 81 81 81 84 84 84 81 74 71 61 61 58 58 55 55 52 52 45 39 35 35 35 35 23 19 19 16 16 13 16
0 6 3 10 13 61 52 58 71 71 74 74 74 77 81 81 87 74 81 77 77 65 55 55 55 55 52 52 45 45 45 42 39 23 19 16 16 13 13 13 10 6 6 6
3 6 10 35 35 39 45 48 48 52 61 58 65 68 68 77 65 74 71 68 55 52 52 58 52 45 45 39 39 42 35 32 19 19 19 16 10 6 3 6 3 3 6 6
0 3 10 32 26 35 39 42 42 45 52 61 68 68 71 65 68 65 65 52 52 52 48 48 48 45 29 32 29 29 23 23 19 19 13 13 10 3 3 3 3 3 0 0
3 3 13 23 23 29 42 35 42 42 48 58 65 65 61 58 61 55 52 48 52 42 42 42 32 32 26 26 26 23 23 19 19 16 6 3 3 0 0 3 0 0 0 0

GEFSCGP_con_cape1000_174.txt.gz
Probability
0 0 0 0 0 0 0 0 0 0 0 0 0 3 19 23 35 42 48 55 55 58 65 68 71 84 77 77 68 58 61 52 52 52 48 32 26 23 19 13 19 13 13 10
0 0 0 0 0 0 0 0 0 0 0 0 0 6 13 16 35 48 55 58 68 65 68 74 84 87 81 81 74 68 58 61 61 55 42 39 29 19 16 16 10 6 10 10
0 0 0 0 0 0 0 0 0 0 0 0 0 6 10 23 35 48 52 65 74 68 74 77 84 87 81 74 74 74 74 68 65 55 48 39 29 16 16 13 6 10 16 13
0 0 0 0 0 0 0 0 0 0 0 0 0 0 6 13 32 45 58 68 71 68 77 77 77 84 77 81 81 74 74 68 61 58 58 29 23 19 13 6 13 10 16 16
0 0 0 0 0 0 0 0 0 0 0 0 0 0 6 10 19 35 48 65 68 81 81 84 81 81 77 81 81 74 68 65 68 52 55 32 19 19 13 6 10 13 16 19
0 0 0 0 0 0 0 0 0 0 0 0 0 3 3 6 13 35 45 55 68 77 81 87 81 81 77 84 84 81 74 65 65 52 45 32 23 23 16 16 10 13 13 19
0 0 0 0 0 0 0 0 0 0 0 0 0 0 0 3 6 32 48 52 65 71 77 84 81 81 84 81 81 77 68 65 61 55 48 39 32 26 23 19 13 13 13 16
0 0 0 0 0 0 0 0 0 0 0 0 0 3 3 6 13 26 45 55 68 71 74 87 81 84 84 84 77 74 71 65 61 55 52 39 32 29 23 16 16 13 13 10
0 0 0 0 0 0 0 0 0 0 0 0 0 0 6 10 19 29 52 58 65 65 74 77 84 84 81 77 77 77 74 74 61 58 48 45 32 29 32 19 19 19 10 16
0 0 0 0 0 0 0 0 0 0 0 0 0 0 0 6 23 29 48 58 65 65 68 71 74 71 77 74 74 77 74 71 68 61 48 42 39 35 39 32 29 23 19 16
0 0 0 0 0 0 0 0 0 0 0 0 0 0 0 6 29 35 45 58 68 68 71 68 68 71 71 68 68 71 68 61 61 58 45 42 35 29 23 29 26 23 19 10
0 0 0 0 0 0 0 0 0 0 0 0 0 0 0 3 23 32 42 52 58 65 61 61 65 68 71 68 68 68 61 61 61 55 42 39 32 26 26 23 23 19 16 6
0 0 0 0 0 0 0 0 0 0 0 0 0 0 0 10 26 39 39 48 52 55 58 61 65 61 65 68 65 71 65 58 58 48 42 39 32 23 19 19 16 16 16 13
0 0 0 0 0 0 0 0 0 0 0 0 0 0 3 23 35 39 42 52 55 58 55 58 52 58 65 71 65 65 68 58 58 48 45 32 32 23 19 16 10 13 16 13
0 0 0 0 0 0 0 0 0 0 0 0 0 3 13 26 35 39 48 58 52 58 58 61 55 52 61 65 61 61 58 55 52 45 39 39 32 26 23 16 13 16 19 16
0 0 0 0 0 0 0 0 0 0 0 0 3 13 6 19 42 52 61 61 61 58 58 61 61 61 61 58 55 52 52 45 48 42 39 32 32 26 26 23 19 19 19 16
0 0 0 0 0 0 0 0 0 0 0 0 10 19 19 39 52 58 61 58 58 55 58 61 61 61 68 61 48 55 45 45 42 42 35 32 29 29 26 23 19 19 16 13
0 0 0 0 0 0 0 0 6 19 23 13 19 29 42 58 58 68 65 61 58 55 71 68 68 65 58 55 52 48 45 39 42 32 39 29 32 29 23 16 16 13 6 6
0 0 0 0 0 0 0 0 3 13 29 42 42 45 58 65 65 74 71 71 68 81 71 68 71 58 52 52 52 45 42 45 42 35 32 23 26 23 19 13 10 10 6 6
0 0 0 0 0 0 0 3 6 10 29 55 52 58 68 74 74 81 77 81 74 68 68 65 55 55 52 48 52 45 39 35 32 32 29 26 19 19 19 13 6 0 0 3
0 0 0 0 0 0 3 26 16 6 29 55 58 61 61 68 71 71 74 74 71 61 65 52 45 42 39 42 39 35 26 23 19 19 19 13 10 6 3 0 3 3 3 3
0 0 0 0 0 0 3 39 39 32 35 42 55 58 65 61 65 74 65 58 55 48 42 42 32 35 35 29 32 23 19 16 13 16 10 10 6 3 3 0 0 0 0 3
0 0 0 0 3 3 19 42 32 23 39 45 55 68 65 61 58 68 58 55 52 45 48 42 32 32 26 23 23 23 19 13 13 13 10 6 3 0 0 0 0 0 0 0
0 0 3 13 16 29 23 29 32 35 39 45 48 48 58 61 52 48 52 45 45 39 35 29 29 26 23 23 19 19 16 13 10 10 6 0 0 0 0 0 0 0 0 0
0 3 10 10 19 16 19 26 35 45 45 45 48 45 45 45 48 48 45 42 32 29 26 26 26 23 23 23 19 16 13 13 10 3 0 0 0 0 0 0 0 0 0 0
3 6 6 13 10 10 13 23 29 39 42 48 42 39 35 39 29 29 32 32 23 23 23 23 23 23 23 19 19 16 13 13 6 3 0 0 0 0 0 0 0 0 0 0

GEFSCGP_con_cape1000_180.txt.gz
Probability
0 0 0 0 0 0 0 0 0 0 0 3 3 6 19 13 19 19 19 19 19 19 29 32 42 45 48 39 32 26 26 19 19 19 13 13 3 6 3 3 6 6 6 3
0 0 0 0 0 0 0 0 0 0 0 0 0 6 19 23 23 19 26 26 23 23 39 42 45 52 52 35 35 39 29 23 23 16 10 3 3 3 3 6 3 3 3 3
0 0 0 0 0 0 0 0 0 0 0 0 0 3 10 23 23 35 32 32 32 42 42 45 42 52 55 48 39 39 35 29 19 10 6 3 3 3 3 3 3 3 0 0
0 0 0 0 0 0 0 0 0 0 0 0 0 0 0 13 19 32 35 39 48 52 45 42 45 45 55 55 45 42 39 29 19 13 10 10 3 6 3 3 3 3 6 0
0 0 0 0 0 0 0 0 0 0 0 0 0 0 0 6 13 23 32 35 55 55 55 52 48 39 55 58 42 35 29 26 19 16 10 6 10 3 3 6 6 6 6 3
0 0 0 0 0 0 0 0 0 0 0 0 0 0 0 3 10 23 39 45 52 52 52 48 48 48 52 55 39 35 29 23 23 16 13 13 13 6 6 6 6 6 6 6
0 0 0 0 0 0 0 0 0 0 0 0 0 0 0 0 6 19 42 45 55 52 52 55 55 52 45 58 52 35 29 29 26 19 23 16 10 10 6 6 6 6 6 6
0 0 0 0 0 0 0 0 0 0 0 0 0 0 3 6 6 19 32 45 65 52 55 52 55 48 55 58 52 48 32 26 26 23 26 19 13 13 10 10 10 10 10 10
0 0 0 0 0 0 0 0 0 0 0 0 0 0 0 10 19 19 45 48 61 58 52 48 48 52 52 55 52 39 32 29 29 32 29 23 16 16 10 10 10 10 10 10
0 0 0 0 0 0 0 0 0 0 0 0 0 0 0 10 16 29 48 58 52 52 52 55 52 55 52 42 45 39 48 35 35 32 32 29 26 16 16 10 10 10 10 10
0 0 0 0 0 0 0 0 0 0 0 0 0 0 0 3 16 23 42 52 45 52 55 58 55 58 48 52 58 52 45 39 39 39 29 26 19 16 13 16 16 13 6 6
0 0 0 0 0 0 0 0 0 0 0 0 0 0 3 6 19 23 29 42 52 48 52 55 55 45 52 58 58 45 42 45 42 35 26 26 19 16 16 19 16 16 6 3
0 0 0 0 0 0 0 0 0 0 0 0 0 0 3 10 23 29 35 42 52 55 52 58 52 52 52 55 58 55 48 45 42 39 32 26 23 23 19 16 13 10 10 10
0 0 0 0 0 0 0 0 0 0 0 0 0 0 3 16 26 29 35 45 48 48 48 48 45 52 55 55 55 58 48 42 39 35 32 29 26 26 19 13 10 10 10 10
0 0 0 0 0 0 0 0 0 0 0 0 0 0 6 6 19 35 42 48 45 48 45 52 48 48 48 61 52 52 45 39 39 39 35 32 29 26 19 13 10 10 10 10
0 0 0 0 0 0 0 3 3 3 0 0 0 6 6 10 32 42 42 48 45 45 48 52 52 52 58 55 45 39 42 32 32 35 29 32 26 23 19 10 10 10 10 10
0 0 0 0 0 0 0 0 6 10 10 0 0 3 16 39 45 45 45 45 35 39 45 55 55 58 48 48 48 39 32 35 35 26 29 26 26 26 16 10 10 10 10 6
0 0 0 0 0 0 0 0 3 19 19 16 19 10 19 32 42 52 45 48 48 45 45 48 52 52 48 42 35 32 29 29 26 23 23 26 26 19 19 13 13 10 10 6
0 0 0 0 0 0 0 0 13 10 23 19 23 23 39 45 55 55 45 52 52 48 48 48 42 42 39 39 32 29 29 29 23 23 23 19 19 16 16 13 10 6 3 3
0 0 0 0 0 0 0 0 0 6 19 16 32 39 48 48 42 42 58 58 55 52 42 39 35 32 26 29 32 26 23 19 16 16 16 10 10 13 13 3 3 3 3 0
0 0 0 0 0 0 0 3 6 0 3 19 39 45 45 42 32 35 52 55 55 45 45 39 26 32 26 32 29 26 23 13 13 13 10 10 10 6 3 3 3 0 0 0
0 0 0 0 0 0 0 13 3 0 6 35 48 48 45 48 45 45 42 45 45 48 42 35 26 23 26 23 26 19 16 10 10 10 10 6 3 3 3 3 0 0 0 0
0 0 0 0 0 0 3 6 10 10 32 35 42 39 42 55 48 39 35 35 45 42 42 39 35 26 26 23 19 16 13 10 10 6 10 6 3 3 3 3 0 0 0 0
0 0 0 0 6 6 6 23 29 35 26 29 45 48 48 45 39 26 26 26 19 23 32 32 32 26 23 23 19 16 13 10 13 10 10 3 3 3 3 0 0 0 0 0
0 0 0 3 6 16 26 19 23 35 35 35 32 32 32 29 26 23 23 19 19 19 19 29 26 26 23 23 23 16 10 10 13 10 6 3 3 0 0 0 0 0 0 0
0 3 0 0 3 6 16 23 23 23 29 29 26 19 19 19 13 13 13 10 10 13 6 10 13 26 23 23 23 16 10 13 10 10 6 3 3 0 0 0 0 0 0 0

GEFSCGP_con_cape1000_186.txt.gz
Probability
0 0 0 0 0 0 0 0 0 0 0 3 6 6 32 39 39 42 52 58 65 71 68 81 87 87 84 87 87 87 87 90 94 90 84 81 77 74 74 58 52 55 58 52
0 0 0 0 0 0 0 0 0 0 0 0 6 10 29 39 48 45 52 68 71 74 77 77 84 90 90 94 90 90 94 94 94 94 97 94 81 71 68 68 68 58 52 55
0 0 0 0 0 0 0 0 0 0 0 6 6 10 32 52 58 52 58 58 55 74 74 81 90 90 90 94 90 90 94 94 94 90 81 74 71 71 68 71 71 65 58 55
0 0 0 0 0 0 0 0 0 0 0 3 3 3 19 55 55 55 71 61 61 65 74 77 87 87 84 90 90 94 94 94 94 90 81 77 74 71 71 71 65 71 55 52
0 0 0 0 0 0 0 0 0 0 0 0 3 0 3 23 35 52 71 74 68 65 65 77 90 87 87 84 90 94 90 87 90 84 74 81 71 71 65 68 65 61 52 48
0 0 0 0 0 0 0 0 0 0 0 0 0 0 0 10 19 35 55 71 74 68 77 87 84 87 87 87 81 77 84 84 81 81 71 74 68 68 61 61 68 61 55 55
0 0 0 0 0 0 0 0 0 0 0 0 0 0 3 16 16 26 45 65 74 77 81 87 87 87 87 87 77 77 77 77 77 77 71 71 74 74 71 65 68 61 55 52
0 0 0 0 0 0 0 0 0 0 0 0 0 0 10 23 35 39 45 61 68 74 77 84 84 81 81 81 77 77 77 74 74 74 77 81 77 68 61 68 61 52 55 55
0 0 0 0 0 0 0 0 0 0 0 0 0 0 10 26 32 39 42 55 68 71 81 81 81 81 84 77 77 74 77 74 74 68 71 74 68 68 68 68 65 52 55 52
0 0 0 0 0 0 0 0 0 0 0 0 0 0 0 26 29 42 52 55 65 68 77 84 81 84 81 74 71 71 74 74 74 74 68 65 65 65 65 65 65 61 52 48
0 0 0 0 0 0 0 0 0 0 0 0 0 0 3 16 26 39 42 55 61 68 81 74 81 77 74 65 71 71 74 74 74 71 68 68 65 61 61 61 45 52 52 52
0 0 0 0 0 0 0 0 0 0 0 0 0 0 6 13 16 42 45 58 65 77 87 81 71 77 74 68 68 71 71 68 74 71 68 68 58 58 55 52 45 42 42 42
0 0 0 0 0 0 0 0 0 0 0 0 0 3 10 13 23 42 52 58 77 81 87 90 87 81 81 74 71 71 71 71 65 68 61 65 61 55 52 52 45 42 35 35
0 0 0 0 0 0 0 0 0 0 0 0 0 3 6 26 32 45 61 74 81 90 94 90 87 87 84 74 77 77 71 65 65 61 65 65 58 55 52 45 39 42 35 39
0 0 0 0 0 0 0 0 0 0 0 0 0 0 10 19 35 55 74 74 84 94 94 90 90 87 87 77 77 74 71 65 65 61 61 61 55 52 35 29 32 32 35 29
0 0 0 0 0 0 0 0 0 0 3 0 0 3 13 26 45 71 81 81 84 90 94 87 87 90 84 77 77 74 68 68 68 65 58 52 48 39 29 29 29 29 35 29
0 0 0 0 0 0 0 6 3 3 3 3 3 6 35 39 61 77 84 84 90 90 87 84 81 81 84 71 77 74 68 68 68 61 55 55 42 39 32 26 26 29 29 29
0 0 0 0 0 0 3 6 6 6 10 13 16 29 42 55 68 74 81 87 84 90 87 84 81 81 81 74 68 68 65 65 65 61 55 45 35 32 29 29 26 26 26 26
0 0 0 0 0 0 3 6 10 10 10 19 26 39 58 61 65 71 81 81 81 84 90 87 81 81 81 74 65 68 65 58 55 45 48 45 32 35 26 26 26 26 23 23
0 0 0 0 0 0 0 6 16 19 13 32 39 48 58 71 58 68 81 84 84 87 84 84 84 81 81 74 65 68 61 61 52 45 45 35 29 29 23 23 26 23 23 19
0 0 0 0 0 0 10 13 23 13 19 55 65 68 74 77 77 84 81 84 84 81 74 74 77 77 77 65 61 58 52 58 52 42 39 35 35 32 26 23 19 19 13 10
0 3 0 0 0 3 6 16 29 52 65 68 68 77 81 84 81 81 81 77 65 65 71 74 71 68 65 65 58 55 55 45 39 29 23 29 29 26 16 16 13 13 6 6
0 0 3 6 6 29 29 52 61 68 74 71 68 74 77 74 65 71 71 71 68 68 68 68 61 55 45 48 61 52 48 39 29 23 23 19 23 23 19 16 13 10 6 6
3 6 10 10 16 32 52 58 58 55 61 61 68 71 71 65 65 68 65 55 55 61 61 55 55 45 45 48 42 39 39 32 29 26 19 19 19 19 16 16 16 10 6 6
6 6 13 26 32 48 48 48 52 55 52 58 68 68 65 61 61 61 52 52 52 52 52 52 48 52 45 45 39 35 29 32 26 23 23 23 16 16 16 10 10 10 10 3
6 19 23 19 35 39 45 52 55 55 55 58 61 55 55 45 45 45 42 42 48 42 42 48 45 39 32 32 26 32 29 26 26 26 23 23 19 13 13 10 6 0 3 0

GEFSCGP_con_cape1000_192.txt.gz
Probability
0 0 0 0 0 0 0 0 0 0 0 0 0 10 19 13 19 19 32 52 61 61 68 84 81 77 81 90 90 90 90 94 90 94 90 90 84 87 81 81 74 84 81 77
0 0 0 0 0 0 0 0 0 0 0 0 0 6 10 19 23 26 42 45 52 77 84 90 94 84 87 90 90 90 90 90 90 90 94 94 87 84 90 90 90 81 81 81
0 0 0 0 0 0 0 0 0 0 0 0 0 6 10 19 23 35 35 42 48 65 77 84 90 94 87 90 94 90 94 90 90 94 94 94 87 87 84 87 84 84 77 77
0 0 0 0 0 0 0 0 0 0 0 0 0 3 13 19 23 26 29 35 45 58 74 87 90 87 81 87 90 94 90 90 90 94 87 87 81 84 84 84 77 81 81 74
0 0 0 0 0 0 0 0 0 0 0 0 0 0 6 19 26 32 29 39 42 55 77 87 87 84 81 81 87 94 90 90 87 84 87 87 84 74 71 77 77 74 74 74
0 0 0 0 0 0 0 0 0 0 0 0 0 0 10 6 26 29 45 42 42 48 81 84 84 87 84 87 87 87 90 87 84 84 84 84 84 84 81 74 74 71 74 68
0 0 0 0 0 0 0 0 0 0 0 0 0 0 3 3 10 26 35 52 48 55 68 84 84 81 84 87 84 87 90 87 84 84 84 84 84 84 77 74 77 74 74 68
0 0 0 0 0 0 0 0 0 0 0 0 0 3 3 10 16 16 35 39 48 61 74 87 87 81 84 81 84 87 84 87 84 87 87 87 87 81 77 81 77 71 68 65
0 0 0 0 0 0 0 0 0 0 0 0 0 6 13 16 19 23 32 45 48 61 74 74 84 81 87 84 84 84 84 84 84 84 87 84 84 84 77 77 71 68 61 55
0 0 0 0 0 0 0 0 0 0 0 0 0 3 16 19 23 23 39 52 48 65 68 68 71 81 81 84 81 84 81 84 84 81 77 74 84 77 74 71 65 65 61 61
0 0 0 0 0 0 0 0 0 0 0 0 0 0 6 19 29 39 42 48 52 55 58 68 74 81 81 77 74 81 81 81 81 77 81 77 71 68 71 71 58 61 65 58
0 0 0 0 0 0 0 0 0 0 26 6 0 0 6 6 16 35 45 52 58 65 71 74 74 84 74 71 71 74 77 81 77 77 81 77 71 68 68 58 58 58 61 52
0 0 0 0 0 0 0 0 0 0 0 0 0 3 0 3 16 35 52 55 71 84 84 94 90 84 84 81 77 77 77 77 77 74 74 74 74 71 65 58 55 48 55 52
0 0 0 0 0 0 0 0 0 0 0 0 0 3 10 6 29 39 61 68 71 87 97 97 90 94 84 77 77 81 77 77 71 71 74 71 71 68 61 58 48 52 48 45
0 0 0 0 0 0 0 0 0 0 0 0 0 6 6 16 39 58 65 71 81 94 97 94 97 97 87 77 81 81 81 77 74 71 71 71 71 68 58 48 48 48 45 42
0 0 0 0 0 0 0 0 0 0 0 0 6 6 6 26 48 61 65 74 84 94 97 94 97 97 87 87 84 81 81 81 81 74 71 71 71 65 45 45 45 45 45 39
0 3 0 0 0 0 0 0 0 0 0 0 10 19 16 39 61 71 84 81 84 87 97 97 97 97 97 87 87 84 74 74 74 71 68 68 61 48 48 42 39 35 35 35
6 35 10 0 0 0 0 0 0 0 3 10 13 13 26 45 61 71 77 84 87 87 90 94 94 94 94 84 84 77 71 71 71 68 65 65 58 45 42 42 35 39 32 32
3 55 0 0 0 0 0 0 0 0 3 6 16 16 39 48 48 71 81 87 90 90 87 84 84 87 90 84 81 74 71 71 71 68 61 52 48 39 35 35 35 32 32 32
0 58 3 0 0 0 3 0 0 0 10 10 16 35 39 39 45 71 90 90 90 87 87 84 81 84 84 84 74 74 71 71 68 65 61 55 48 35 32 32 29 29 29 26
0 10 0 0 0 0 3 3 3 0 32 29 35 48 61 77 84 87 87 87 81 84 84 81 81 81 84 81 77 71 71 65 68 65 55 48 42 32 29 32 32 26 26 23
0 0 6 3 0 3 23 10 23 68 71 45 48 61 71 77 87 87 84 81 81 84 84 81 81 74 77 81 77 74 68 68 65 55 42 42 29 29 29 29 26 26 26 23
0 6 6 23 26 68 52 65 71 68 71 68 65 68 77 84 87 84 81 81 84 84 81 77 74 74 74 74 74 68 65 58 55 42 32 32 29 29 29 26 26 26 26 23
3 23 29 61 48 48 48 55 61 58 61 58 58 61 68 74 77 77 81 81 81 77 74 74 68 61 55 58 65 65 65 61 48 35 29 23 26 26 26 26 26 26 23 19
6 16 39 55 61 48 55 58 61 61 55 52 52 58 65 71 77 77 74 68 65 68 65 65 61 55 55 61 48 48 42 48 45 26 23 19 19 23 26 23 19 19 19 19
10 26 39 39 52 45 52 52 55 55 58 61 61 65 65 68 68 68 65 61 58 58 65 61 58 48 52 52 52 45 45 45 39 29 26 19 19 23 23 16 13 6 6 3

GEFSCGP_con_cape1000_198.txt.gz
Probability
0 0 0 0 0 0 0 0 0 0 0 0 3 6 3 0 3 10 13 16 13 26 26 42 48 55 55 52 48 39 42 39 35 32 29 26 26 13 13 10 10 16 10 10
0 0 0 0 0 0 0 0 0 0 3 13 10 6 6 6 3 6 6 13 16 16 29 42 48 58 58 52 45 48 52 52 45 45 35 29 26 23 19 13 16 13 13 10
0 0 0 0 0 0 0 0 0 3 6 6 10 6 10 6 6 10 13 19 26 29 29 45 52 48 55 58 58 58 48 52 58 55 45 42 35 26 29 19 16 16 26 13
0 0 0 0 0 0 0 0 0 0 3 6 0 0 6 3 6 13 16 16 26 32 35 42 55 55 58 61 52 55 61 58 61 58 48 42 35 35 32 26 23 23 26 19
0 0 0 0 0 0 0 0 0 0 0 0 0 0 3 6 3 13 13 13 35 32 39 48 58 55 58 52 58 55 61 58 61 55 52 42 35 32 35 32 29 23 26 26
0 0 0 0 0 0 0 0 0 0 0 0 0 0 10 6 3 10 13 23 32 42 45 58 52 58 61 55 71 68 65 68 65 48 52 48 45 42 39 42 32 32 26 26
0 0 0 0 0 0 0 0 0 0 0 0 0 3 6 6 3 13 10 19 42 45 48 48 48 61 61 68 68 77 71 71 65 55 55 58 48 45 42 39 39 26 23 19
0 0 0 0 0 0 0 0 0 0 0 0 0 3 6 6 3 6 16 26 48 52 48 48 52 55 61 68 71 74 71 65 65 65 61 58 55 48 45 42 35 26 26 23
0 0 0 0 0 0 0 0 0 0 0 0 3 6 10 6 6 13 19 26 45 52 48 52 55 55 58 71 71 74 68 65 65 52 45 45 45 45 45 39 35 26 29 29
0 0 0 0 0 0 0 0 0 0 0 0 0 6 10 10 13 16 26 29 42 48 45 48 52 48 55 68 68 71 65 58 65 48 45 45 42 42 35 39 35 32 32 35
0 0 0 0 0 0 0 0 0 0 0 0 0 0 3 10 6 13 23 29 39 42 45 52 52 52 55 61 68 71 68 61 61 58 45 48 42 42 35 32 29 29 26 26
0 0 0 0 0 0 0 0 0 0 0 0 0 0 3 13 10 13 19 39 52 48 48 55 58 58 68 61 61 74 65 65 61 58 48 45 45 42 39 39 29 26 26 26
0 0 0 0 0 0 0 0 0 0 0 0 0 0 3 16 19 26 32 39 48 48 52 52 45 55 58 61 65 68 65 68 65 58 52 52 48 39 39 32 29 26 26 26
0 0 0 0 0 0 0 0 0 0 0 0 0 0 10 19 23 35 42 39 45 52 55 58 45 48 55 61 65 65 61 61 65 61 52 52 45 35 29 29 29 26 26 19
0 0 0 0 0 0 0 0 0 0 0 0 3 3 6 16 16 35 39 48 55 58 58 58 45 45 52 61 65 61 61 58 58 61 48 48 32 32 29 29 26 19 19 19
0 0 0 0 0 0 0 0 0 3 0 3 6 10 10 10 23 39 45 58 61 65 58 55 55 52 52 61 65 68 58 58 58 55 48 45 29 26 23 23 23 23 19 19
0 0 0 0 0 0 0 0 3 6 6 13 16 19 16 19 29 39 55 61 68 65 52 61 55 48 58 58 58 65 58 58 58 52 52 35 26 23 26 26 23 23 19 19
0 0 0 0 0 0 3 3 6 6 10 13 16 23 16 19 42 55 55 58 68 65 58 68 58 45 48 48 48 48 48 52 55 52 45 29 26 26 26 26 26 23 16 16
0 0 0 0 0 0 0 3 6 10 13 19 23 19 32 45 55 58 58 58 61 58 58 58 58 48 52 45 48 45 45 48 52 42 35 26 29 26 26 23 23 19 16 16
0 0 0 0 0 0 0 6 13 10 16 23 29 29 52 58 48 58 74 71 68 61 58 58 58 55 52 48 42 42 35 35 39 35 35 29 23 19 23 19 19 16 19 13
0 0 0 0 0 0 3 16 16 6 23 23 35 35 55 48 42 58 68 68 65 71 68 68 71 55 52 45 39 39 35 29 26 26 26 23 26 16 16 13 19 19 13 13
0 0 0 0 0 0 6 32 29 19 23 35 42 45 58 61 68 58 61 68 65 65 61 61 58 48 45 35 39 39 29 26 19 23 23 19 23 23 19 13 13 13 13 13
0 0 0 0 3 10 23 32 35 35 45 42 52 55 68 65 58 55 55 61 68 58 58 45 42 42 42 39 35 26 26 23 13 19 16 10 16 19 16 19 13 13 13 13
0 0 6 6 16 19 26 26 42 45 48 48 52 55 65 65 61 58 61 61 58 58 48 42 39 39 35 32 29 26 26 19 19 16 10 6 13 13 13 13 13 13 13 13
0 3 6 6 13 19 23 19 29 32 45 48 55 58 48 48 48 48 45 48 48 42 45 39 32 35 29 23 16 16 16 13 16 13 10 10 13 13 13 10 10 13 13 16
0 3 10 10 10 16 16 16 26 35 42 42 58 52 48 52 48 42 35 35 35 35 35 32 32 26 26 23 16 16 13 6 10 10 6 6 6 10 10 10 6 6 3 3

GEFSCGP_con_cape1000_204.txt.gz
Probability
0 0 0 0 0 0 0 0 0 3 3 3 3 3 0 0 0 10 10 10 13 16 19 16 16 16 10 13 6 6 6 10 10 13 13 13 10 10 6 0 0 3 0 0
0 0 0 0 0 0 0 0 3 3 6 3 3 0 0 0 3 10 10 6 10 16 19 16 16 13 13 16 13 6 13 13 13 13 10 10 10 6 6 10 6 3 3 3
0 0 0 0 0 0 0 0 3 6 6 3 3 3 3 0 6 13 10 10 10 16 19 16 19 19 26 19 16 23 16 10 16 16 13 16 13 13 13 10 10 6 3 6
0 0 0 0 0 0 0 0 3 6 3 3 0 0 0 3 3 10 13 13 13 19 16 19 23 23 26 23 23 23 19 16 19 23 23 23 19 16 6 3 6 6 10 6
0 0 0 0 0 0 0 0 0 0 0 0 0 0 0 0 3 10 13 13 16 16 23 23 26 23 19 29 29 26 26 26 23 19 16 16 13 6 6 6 13 13 10 10
0 0 0 0 0 0 0 0 0 0 0 0 0 0 0 0 3 6 10 13 16 16 16 13 23 26 26 32 32 29 26 19 19 16 16 16 16 13 13 16 16 16 10 10
0 0 0 0 0 0 0 0 0 0 0 0 0 0 0 0 0 3 10 16 19 19 16 16 16 23 29 29 29 32 29 23 19 16 23 26 23 16 26 23 16 13 13 10
0 0 0 0 0 0 0 0 0 0 0 0 0 0 0 3 3 6 6 19 23 26 23 23 19 23 26 35 26 35 29 26 19 23 23 29 26 26 23 23 16 16 16 16
0 0 0 0 0 0 0 0 0 0 0 0 0 0 3 3 3 6 16 23 32 26 23 23 26 19 26 26 29 45 29 26 23 29 26 26 26 23 26 23 23 19 19 19
0 0 0 0 0 0 0 0 0 0 0 0 0 0 0 6 3 6 10 23 26 23 23 26 23 23 29 39 32 35 35 39 29 26 32 32 29 26 26 23 23 23 19 23
0 0 0 0 0 0 0 0 0 0 0 0 0 0 0 3 3 6 10 13 23 26 26 26 19 23 32 35 29 29 39 35 35 32 32 32 32 29 29 29 29 23 23 23
0 0 0 0 0 0 0 0 0 0 0 0 0 0 0 3 6 6 6 6 23 23 19 23 16 26 32 39 32 32 35 45 39 35 32 35 35 32 32 32 29 29 29 26
0 0 0 0 0 0 0 0 0 0 0 0 0 0 3 6 6 6 6 19 29 35 35 23 19 26 42 39 29 29 35 42 39 35 32 35 39 32 32 29 29 29 26 23
0 0 0 0 0 0 0 0 0 0 0 0 0 0 3 6 10 6 16 26 32 35 39 29 29 39 32 35 35 32 29 42 45 42 39 42 35 29 29 29 29 26 23 23
0 0 0 0 0 0 0 0 0 0 0 0 3 3 3 10 10 16 23 26 39 48 42 35 26 35 42 39 45 35 32 42 48 42 35 35 32 29 23 26 19 19 19 16
0 0 0 0 0 0 3 6 6 6 6 6 6 6 10 13 13 19 26 32 45 45 45 32 32 35 35 32 35 42 39 39 39 32 29 29 19 19 19 19 19 19 19 16
0 0 0 0 0 0 3 3 6 6 10 6 6 6 10 19 16 16 29 35 42 45 45 39 39 32 35 32 42 48 45 42 35 32 26 19 16 23 16 16 16 16 16 13
0 0 0 0 0 0 0 3 6 10 10 13 13 19 19 23 13 16 23 32 45 52 48 48 45 39 39 35 39 35 35 42 39 32 29 16 13 13 19 16 16 13 13 13
0 0 0 0 0 3 3 0 3 10 10 23 23 26 23 26 23 26 26 39 48 58 48 52 45 32 39 39 29 39 35 35 39 35 32 26 13 13 13 19 13 13 16 13
0 0 0 0 0 0 0 0 3 0 3 10 23 23 23 26 19 16 23 42 39 35 42 42 42 32 32 29 35 42 42 32 29 29 32 19 13 13 13 16 13 13 13 13
0 0 0 0 0 0 0 3 3 0 0 6 23 19 26 19 10 16 35 39 39 39 39 42 42 35 32 26 26 32 29 23 23 26 23 16 16 16 13 10 13 13 13 10
0 0 0 0 0 0 0 10 0 0 3 19 26 26 19 13 26 32 39 42 48 55 45 42 48 35 29 26 26 26 23 19 23 19 13 13 6 10 6 3 3 3 6 6
0 0 0 0 0 0 0 6 6 3 13 23 19 16 23 29 32 42 42 35 52 52 52 45 39 32 26 26 26 26 19 16 16 6 10 6 6 6 6 3 6 3 3 0
0 0 0 3 6 6 6 6 13 16 19 23 26 23 29 29 35 39 39 39 42 42 45 35 29 29 29 19 19 19 16 13 13 6 6 0 0 0 3 0 0 0 0 0
0 0 0 3 3 6 6 6 10 26 32 35 39 32 26 45 48 39 42 32 32 35 39 39 29 26 19 19 19 16 13 13 6 3 3 0 0 0 0 0 0 0 0 0
0 0 0 3 0 0 3 10 19 26 29 35 42 42 39 42 45 32 23 29 23 19 23 26 19 16 16 13 10 10 13 13 6 6 3 0 0 0 0 0 0 0 0 0

GEFSCGP_con_cape1000_210.txt.gz
Probability
0 3 0 3 0 0 0 0 3 3 0 0 0 0 3 6 10 13 16 19 23 29 39 45 55 48 65 74 74 84 87 90 90 81 77 77 74 77 71 61 65 68 68 68
0 0 0 0 3 0 0 3 3 3 0 3 3 6 6 10 10 19 19 19 26 26 45 61 58 65 74 81 74 81 81 87 90 87 84 84 77 71 65 68 71 71 61 65
0 0 0 0 0 0 0 0 3 3 6 10 6 3 10 13 19 32 26 29 29 32 45 61 65 71 71 81 81 74 81 84 87 84 68 71 77 74 81 77 81 71 58 55
0 0 0 0 0 0 0 3 3 3 3 3 6 0 16 23 32 32 32 32 29 35 48 52 68 71 74 74 74 77 77 81 84 77 65 65 77 71 84 81 77 74 61 58
0 0 0 0 0 0 3 3 3 3 0 0 6 0 3 19 16 29 35 35 35 45 45 65 68 77 74 71 74 77 77 81 81 81 81 81 71 71 68 74 74 71 61 58
0 0 0 0 0 3 3 3 3 0 0 0 0 0 0 10 16 16 32 45 42 52 45 61 65 74 74 71 74 74 81 81 81 81 77 87 81 74 71 71 58 55 58 58
0 0 0 0 3 3 0 0 0 0 0 0 3 0 0 10 10 13 26 45 45 55 55 65 68 84 74 77 77 77 81 84 77 77 77 77 77 74 68 65 55 52 55 52
0 0 0 0 0 0 0 0 0 0 0 0 3 0 6 23 23 13 23 35 45 55 58 55 68 71 81 81 81 81 81 81 74 74 77 77 71 65 58 58 52 52 52 48
0 0 0 0 0 0 0 0 0 0 0 0 0 3 10 26 29 26 29 39 55 58 48 55 61 61 74 81 84 84 81 81 74 74 74 77 74 71 65 65 65 48 58 52
0 0 0 0 0 0 0 0 0 0 0 0 0 0 6 23 29 35 45 55 61 68 61 55 68 58 61 81 84 81 81 81 81 74 74 71 68 68 68 65 61 58 55 52
0 0 0 0 0 0 0 0 0 0 0 0 0 0 3 26 26 32 45 48 61 61 65 65 74 71 68 74 81 77 81 77 81 74 74 71 68 65 65 58 55 55 52 48
0 0 0 0 0 0 0 0 0 0 0 0 0 3 13 23 16 23 39 45 68 68 71 68 68 84 81 74 71 77 77 77 77 74 74 71 68 68 65 55 55 55 52 52
0 0 0 0 0 0 0 0 0 0 0 0 0 3 23 29 19 26 35 45 68 74 77 77 77 90 87 74 77 77 77 77 77 77 74 71 74 68 65 55 52 52 48 48
0 0 0 0 0 0 0 0 0 0 0 0 0 6 26 35 32 42 42 61 74 81 84 84 84 90 90 81 81 77 77 77 81 77 65 71 71 65 61 52 48 52 52 45
0 0 0 0 0 0 0 0 0 0 0 0 0 10 29 32 42 45 52 71 81 84 84 84 84 87 84 77 77 74 71 77 74 71 65 68 65 61 55 48 48 48 42 39
0 0 0 0 0 0 0 3 0 0 0 0 10 19 26 39 42 48 58 68 87 84 84 90 90 87 87 81 74 71 68 71 71 68 68 65 58 55 48 48 45 45 39 39
0 0 0 0 0 0 0 3 3 6 13 10 13 19 32 39 48 55 68 71 77 94 90 90 84 81 81 74 71 74 68 68 71 68 65 58 58 45 42 39 42 42 42 42
0 0 0 0 0 0 3 10 10 13 16 16 19 26 29 42 52 48 65 74 71 77 84 87 84 84 81 74 77 71 65 65 61 58 55 52 48 45 39 39 32 32 42 42
0 0 0 0 0 0 6 13 13 16 19 19 29 32 39 42 45 42 58 58 68 77 81 84 81 81 81 77 71 68 61 61 61 55 52 52 42 42 39 39 32 32 32 32
3 3 0 0 0 0 6 13 19 19 16 23 29 39 42 42 32 42 65 71 68 71 81 81 81 81 81 71 68 65 65 61 55 55 48 48 45 42 35 35 32 32 32 32
3 3 0 0 0 3 13 10 13 13 23 35 35 42 48 52 52 52 65 74 77 71 77 81 81 77 77 74 68 68 61 61 55 52 45 45 39 35 35 32 35 29 26 26
3 3 3 0 0 3 10 13 23 32 35 35 39 39 55 52 55 55 65 74 77 65 71 77 81 77 71 68 71 71 68 58 55 42 42 39 39 35 23 23 19 23 23 23
3 3 3 3 10 19 23 26 29 29 32 42 45 45 48 58 58 55 68 77 65 65 71 74 74 74 68 68 68 61 61 55 52 42 42 39 35 35 19 19 16 16 16 19
10 13 13 16 13 19 19 23 23 23 29 42 42 39 45 48 55 58 65 68 68 71 61 74 68 68 61 65 61 65 61 55 48 45 45 32 29 19 16 16 16 16 13 6
6 13 19 19 19 19 19 19 23 29 29 35 35 39 42 48 52 55 65 65 58 65 65 68 61 55 52 48 48 55 48 48 45 39 35 26 26 23 23 16 16 13 13 6
10 10 13 10 16 16 19 19 16 26 29 35 35 39 42 48 45 55 52 55 55 58 58 55 52 52 45 48 42 48 48 45 42 39 29 26 23 26 16 10 3 0 0 0

GEFSCGP_con_cape1000_216.txt.gz
Probability
0 0 0 0 0 0 0 0 0 0 0 0 0 0 10 10 3 6 6 10 35 39 42 55 58 65 71 87 87 90 94 94 94 94 94 94 87 87 84 84 84 77 77 81
0 0 0 0 0 0 0 0 0 0 0 0 0 0 6 10 10 3 6 19 29 48 55 65 74 71 71 87 87 87 90 90 94 94 94 94 94 87 81 84 81 74 77 77
0 0 0 0 0 0 0 0 0 0 0 0 0 0 3 10 10 10 3 6 26 35 55 61 68 81 74 84 84 84 87 90 94 94 90 94 94 90 90 84 84 74 71 74
0 0 0 0 0 0 0 0 0 0 0 3 3 3 10 6 16 16 6 13 19 26 39 61 71 81 74 77 81 84 87 90 90 90 90 90 90 87 87 87 84 84 77 68
0 0 0 0 0 0 0 0 0 0 0 0 0 3 10 19 19 19 13 16 19 29 39 55 71 81 71 77 84 84 84 87 90 90 90 90 90 84 87 87 87 87 74 68
0 0 0 0 0 0 0 0 0 0 0 0 0 0 23 13 29 26 19 16 29 29 42 61 71 74 65 74 87 84 84 84 87 90 87 90 87 87 87 87 84 77 77 68
0 0 0 0 0 0 0 0 0 0 0 0 0 3 19 6 6 19 19 29 32 35 48 58 71 77 77 74 81 81 84 84 84 84 84 84 87 87 84 84 81 74 68 61
0 0 0 0 0 0 0 0 0 0 0 0 0 0 3 0 3 10 23 23 39 35 55 55 81 77 74 77 84 84 87 84 84 81 81 81 81 81 77 84 77 71 65 61
0 0 0 0 0 0 0 0 0 0 0 0 0 3 6 3 6 19 26 29 39 48 45 52 74 71 77 84 84 84 87 87 84 81 81 81 84 84 81 84 77 68 68 58
0 0 0 0 0 0 0 0 0 0 6 0 3 6 16 19 19 26 29 39 48 48 48 52 55 71 74 81 84 87 87 87 84 84 81 81 81 81 81 81 77 74 68 65
0 0 0 0 0 0 0 0 0 0 0 0 0 6 3 19 39 19 39 48 52 48 45 52 61 68 74 74 77 81 84 84 84 84 84 84 84 81 77 74 77 77 74 77
0 0 0 0 0 0 0 0 0 0 26 0 0 3 0 6 19 26 39 52 58 55 48 55 61 74 71 71 71 84 81 77 77 77 84 84 84 81 81 77 77 74 71 71
0 0 0 0 0 0 0 0 0 0 0 0 0 13 6 13 16 26 42 45 52 55 65 61 65 77 84 84 84 84 81 77 77 77 81 84 84 81 81 77 74 71 68 58
0 0 0 0 0 0 0 0 0 0 0 0 6 3 10 10 19 26 39 48 55 55 68 81 90 94 90 90 84 84 77 77 77 77 77 81 77 77 77 74 71 68 61 58
0 0 0 0 0 0 0 0 0 0 0 3 6 6 16 19 23 32 39 39 58 65 68 87 90 94 90 87 84 81 71 71 74 77 74 71 71 74 71 71 61 58 58 45
0 3 0 0 0 0 0 0 0 0 0 3 6 6 16 26 35 48 52 45 55 71 77 81 87 87 90 87 87 81 74 71 71 71 71 68 68 65 61 58 55 52 48 42
0 0 0 0 0 0 0 0 0 0 3 3 10 16 26 42 52 55 65 65 71 61 77 84 87 87 90 84 84 81 74 71 71 71 71 68 68 61 58 42 45 42 39 32
0 13 10 0 0 0 0 0 0 3 3 19 16 26 39 42 61 68 71 77 71 71 71 87 84 84 84 84 84 84 71 71 71 71 71 71 68 55 55 52 48 42 39 29
0 19 3 0 0 0 0 0 3 3 6 16 29 39 42 42 48 48 52 55 68 65 71 77 84 84 87 87 87 84 68 68 68 68 68 65 61 55 55 48 42 45 35 32
0 13 0 0 0 0 0 0 3 6 19 16 29 45 45 48 48 48 58 61 61 65 65 68 71 81 87 87 87 84 77 71 71 71 71 65 65 65 58 48 45 39 35 32
0 13 0 0 3 0 3 3 3 6 29 29 35 39 48 48 48 45 58 61 68 71 68 71 74 74 84 87 84 81 74 71 68 68 65 61 61 58 55 48 48 45 32 29
0 3 0 0 0 0 10 13 16 42 45 35 42 39 42 42 45 48 55 65 65 68 65 65 77 77 84 87 84 81 74 74 68 65 65 61 58 52 48 52 48 42 35 35
0 13 10 23 23 32 23 29 42 42 42 29 35 26 29 39 39 52 55 65 65 61 65 65 77 81 84 87 84 81 77 74 74 65 65 61 58 48 45 48 42 35 35 26
3 16 10 32 26 16 19 26 19 26 26 23 26 26 26 35 42 45 55 61 58 61 61 65 68 71 84 87 81 81 77 74 68 58 55 55 45 45 45 42 32 29 26 26
3 3 13 26 29 19 19 19 19 16 13 16 23 26 32 39 45 48 55 61 52 52 55 58 68 71 77 81 74 68 65 65 61 58 55 52 39 39 35 32 32 23 19 16
3 6 10 26 26 26 26 26 23 13 16 19 19 19 23 29 42 42 42 52 55 52 52 48 52 58 58 68 65 61 58 61 58 55 48 39 35 35 32 32 26 3 3 3

GEFSCGP_con_cape1000_222.txt.gz
Probability
0 0 0 0 0 0 0 0 0 0 0 0 0 0 0 3 3 10 6 13 10 10 6 6 16 26 35 26 29 29 29 29 32 35 32 29 23 26 19 19 16 16 13 16
0 0 0 0 0 0 0 0 0 3 0 0 0 0 0 3 6 10 10 13 13 6 0 6 23 35 42 45 39 39 32 45 45 39 32 26 23 35 23 23 23 19 16 19
0 0 0 0 0 0 0 0 0 0 0 0 0 0 0 3 0 10 13 13 10 3 6 6 23 39 45 48 45 55 48 55 55 48 48 48 39 39 32 29 16 19 23 26
0 0 0 0 0 0 0 0 0 0 0 0 0 0 0 3 3 13 13 13 16 13 6 6 29 42 45 52 52 48 52 55 55 52 48 45 45 32 32 23 29 26 26 29
0 0 0 0 0 0 0 0 0 0 0 0 0 0 0 0 3 10 13 16 16 19 16 13 29 35 61 58 61 52 58 55 55 55 45 45 42 35 35 29 39 29 29 32
0 0 0 0 0 0 0 0 0 0 0 0 0 0 0 0 3 10 13 13 19 26 19 16 29 35 58 65 65 68 58 52 52 55 52 48 45 45 45 39 42 35 35 32
0 0 0 0 0 0 0 0 0 0 0 0 0 0 0 0 0 6 13 16 23 26 26 19 16 32 52 65 71 71 61 55 55 58 58 55 48 45 45 45 45 35 35 35
0 0 0 0 0 0 0 0 0 0 0 0 0 0 0 3 3 6 10 16 23 23 16 23 23 29 55 65 65 65 65 61 55 65 61 58 55 48 45 45 42 39 35 35
0 0 0 0 0 0 0 0 0 0 0 0 0 0 3 3 3 6 16 19 23 23 16 23 26 35 48 61 58 65 61 65 61 65 68 58 55 48 48 42 42 39 39 35
0 0 0 0 0 0 0 0 0 0 0 0 0 0 0 3 3 6 19 26 32 29 19 16 26 32 42 55 55 68 61 61 65 71 68 65 55 48 48 39 35 35 35 32
0 0 0 0 0 0 0 0 0 0 0 0 0 0 0 3 3 3 19 29 29 32 26 19 26 42 52 55 58 61 65 58 61 68 68 61 52 45 39 35 35 35 32 29
0 0 0 0 0 0 0 0 0 0 0 0 0 0 3 6 6 10 10 19 35 29 23 19 26 32 42 52 55 61 61 61 61 68 65 61 48 42 42 35 35 29 26 26
0 0 0 0 0 0 0 0 0 0 0 0 0 3 3 6 13 10 6 19 39 39 29 26 26 39 42 52 58 61 61 61 65 68 65 55 52 45 42 35 32 32 32 26
0 0 0 0 0 0 0 0 0 0 0 0 3 6 6 6 10 3 6 19 29 29 29 23 19 32 39 39 52 55 65 65 61 61 55 55 48 39 32 29 29 26 26 26
0 0 0 0 0 0 0 0 0 0 0 3 3 6 10 6 10 6 16 26 35 39 29 26 32 29 35 35 45 55 58 65 58 55 55 55 48 39 32 35 26 23 23 23
0 0 0 0 0 0 0 3 3 3 6 6 6 10 6 6 16 26 29 39 42 42 48 48 35 35 39 39 39 55 58 55 52 58 58 55 52 39 29 32 32 26 26 23
0 0 0 0 0 0 3 3 3 6 6 6 19 26 26 29 26 23 23 29 48 52 55 55 45 48 45 45 39 52 52 55 52 55 58 58 52 42 32 32 32 29 29 26
0 0 0 0 0 0 0 0 6 10 13 16 23 29 32 23 26 19 16 26 35 42 45 52 58 58 52 45 42 42 52 52 52 52 55 55 48 39 39 32 32 29 29 29
0 0 0 0 0 3 0 0 3 13 19 19 26 26 29 29 23 26 26 29 35 35 39 52 61 65 55 48 45 45 52 52 52 45 45 52 52 39 35 35 32 29 29 26
0 0 0 0 0 0 0 3 6 10 19 19 16 19 26 23 26 23 32 32 29 32 39 42 55 52 48 52 48 48 52 52 48 45 45 45 35 39 35 35 29 26 26 23
0 0 0 0 0 0 3 13 6 10 16 16 16 16 19 23 26 23 29 26 32 29 39 45 55 48 48 45 45 45 52 48 52 45 48 45 42 35 32 32 26 26 26 23
0 0 0 0 0 0 0 16 16 10 13 10 16 19 26 29 32 29 29 29 32 35 42 48 45 48 42 39 35 39 42 42 42 48 52 48 42 39 35 32 26 26 23 23
0 0 0 0 0 0 3 6 10 6 13 10 19 19 23 23 26 32 29 29 32 35 39 42 42 42 39 39 35 35 39 39 39 45 42 39 35 35 35 35 26 23 23 19
0 0 0 3 3 0 0 0 0 3 6 10 10 16 19 19 29 29 29 26 29 32 35 42 42 39 39 35 32 29 35 32 39 39 35 32 29 26 26 19 19 19 16 13
0 0 3 6 0 0 0 0 0 3 10 6 10 13 10 13 16 23 26 23 29 32 32 35 35 35 32 32 29 26 23 26 35 32 32 26 19 19 19 16 13 13 6 6
0 0 0 0 0 0 0 0 0 6 6 6 13 13 13 13 10 10 16 23 26 29 29 23 26 32 39 32 26 26 23 29 32 32 29 16 19 19 16 10 6 0 3 3

GEFSCGP_con_cape1000_228.txt.gz
Probability
0 0 0 0 0 0 0 0 0 0 0 0 0 0 0 0 3 3 3 3 0 0 0 0 3 6 3 6 6 6 10 3 0 6 6 6 10 6 6 10 6 6 6 6
0 0 0 0 0 0 0 0 0 0 0 0 0 0 0 0 3 3 3 3 0 0 0 0 6 16 10 10 10 6 3 6 3 10 10 10 6 6 6 6 6 6 10 13
0 0 0 0 0 0 0 0 0 0 0 0 0 0 0 0 3 3 3 3 0 0 0 0 16 16 16 13 13 6 3 10 3 10 10 10 10 13 6 10 6 10 10 10
0 0 0 0 0 0 0 0 0 0 0 0 0 0 0 0 10 10 6 6 0 0 0 3 13 16 13 16 13 13 6 10 3 10 16 19 13 19 19 10 6 10 10 10
0 0 0 0 0 0 0 0 0 0 0 0 0 0 0 0 3 10 10 10 6 3 0 3 13 13 10 10 13 10 3 6 10 10 13 13 10 19 13 10 10 6 10 13
0 0 0 0 0 0 0 0 0 0 0 0 0 0 0 0 0 6 6 10 10 6 3 6 10 16 13 16 26 23 10 10 13 13 16 16 16 19 19 16 16 16 10 13
0 0 0 0 0 0 0 0 0 0 0 0 0 0 0 0 0 0 6 6 10 6 6 6 13 10 10 19 26 32 19 16 16 23 29 29 26 23 26 26 23 23 26 23
0 0 0 0 0 0 0 0 0 0 0 0 0 0 0 3 3 0 10 10 13 10 6 10 13 16 10 26 32 32 26 19 19 26 35 35 35 32 32 29 26 26 23 26
0 0 0 0 0 0 0 0 0 0 0 0 0 0 3 3 3 3 6 16 16 19 13 16 16 16 10 26 35 32 29 26 26 26 35 32 39 39 35 32 29 23 23 26
0 0 0 0 0 0 0 0 0 0 0 0 0 0 0 3 3 3 10 10 13 13 10 13 19 16 13 19 26 26 26 32 32 32 35 39 42 39 39 29 29 26 26 19
0 0 0 0 0 0 0 0 0 0 0 0 0 0 0 3 3 3 6 10 13 13 10 13 10 16 13 19 29 29 26 32 35 39 39 42 45 42 35 35 32 29 26 23
0 0 0 0 0 0 0 0 0 0 0 0 0 0 0 0 3 6 6 10 10 10 16 13 13 13 10 16 23 29 32 29 42 42 42 45 35 35 35 32 29 29 26 23
0 0 0 0 0 0 0 0 0 0 0 0 0 0 0 3 6 6 3 10 13 16 16 13 13 16 13 16 19 29 35 39 42 42 42 39 39 32 32 29 26 23 23 19
0 0 0 0 0 0 0 0 0 0 0 0 0 0 0 10 6 6 6 3 16 19 16 13 16 19 13 16 19 26 35 45 42 39 39 35 32 32 26 29 23 23 23 19
0 0 0 0 0 0 0 0 0 0 0 0 0 0 0 6 6 13 6 6 6 19 19 16 16 16 16 19 23 23 35 32 35 39 35 32 32 32 29 29 26 26 23 23
0 0 0 0 0 0 3 3 3 3 0 0 0 0 6 13 16 19 16 19 19 23 23 19 19 16 16 23 16 19 32 35 39 39 35 35 35 26 29 26 23 16 19 19
0 0 0 0 3 0 3 0 3 6 3 0 0 0 13 16 23 23 19 19 23 23 26 26 23 13 13 16 23 19 23 35 35 42 39 35 35 26 26 23 19 16 16 19
0 0 0 0 0 0 0 3 10 13 6 10 6 10 13 23 16 16 16 16 23 29 29 32 26 19 16 19 19 19 26 32 39 39 35 32 39 32 23 23 16 16 19 19
0 0 0 0 3 3 6 6 10 13 10 10 13 16 23 19 16 16 16 13 19 26 26 26 29 26 19 26 26 26 29 29 32 35 39 35 35 35 29 23 19 16 19 19
0 0 0 3 3 0 3 6 10 13 10 13 19 23 23 19 19 16 16 13 16 23 26 26 26 29 26 26 26 32 35 32 32 32 32 35 35 29 32 26 23 19 19 23
0 0 0 3 0 0 6 10 6 0 6 10 19 23 19 19 16 16 19 23 26 23 26 26 29 26 26 19 29 32 35 32 26 26 26 23 29 19 16 19 16 13 16 13
0 0 0 0 3 3 0 10 10 10 6 16 13 16 19 16 19 16 19 26 26 23 26 23 23 23 23 23 19 23 19 19 16 16 16 23 23 16 13 16 13 13 10 10
0 0 0 0 0 0 0 10 6 3 6 16 13 19 16 13 16 19 23 19 26 23 23 23 19 16 19 19 16 13 16 13 10 13 16 19 16 13 13 13 13 10 3 10
0 0 0 0 0 0 0 0 0 6 3 3 10 10 10 13 16 13 10 16 23 23 19 19 23 23 26 23 19 19 16 16 13 13 16 19 16 10 13 10 10 6 6 3
0 0 0 0 0 0 0 0 0 0 0 3 3 6 6 6 6 10 10 10 10 10 13 19 19 19 19 19 19 13 16 16 10 10 13 13 16 6 10 10 6 6 10 6
0 0 0 0 0 0 0 0 0 0 0 3 3 3 3 6 6 6 3 6 6 13 13 10 13 13 13 16 16 16 10 13 13 13 10 13 16 16 6 13 10 3 3 3

GEFSCGP_con_cape1000_234.txt.gz
Probability
0 0 0 0 0 0 0 0 0 0 0 0 3 3 10 13 10 10 13 10 10 10 13 19 29 35 45 68 74 77 84 84 81 81 81 74 77 77 61 65 61 68 61 68
0 0 0 0 0 0 0 0 0 0 0 3 3 6 10 16 13 10 6 10 6 13 16 32 42 48 52 71 74 81 77 77 81 81 81 81 77 68 61 61 71 71 65 61
0 0 0 0 0 0 0 0 0 0 0 0 3 6 10 13 13 13 13 13 6 6 23 39 48 58 61 68 71 71 77 77 81 81 81 77 77 77 68 65 65 68 58 61
0 0 0 0 0 0 0 0 0 0 0 0 0 0 10 16 19 16 16 13 6 3 16 29 48 61 61 65 68 81 84 84 84 84 77 74 77 71 71 74 71 74 68 58
3 0 0 0 0 0 0 0 0 0 0 0 0 0 6 16 16 23 19 23 16 16 13 23 39 65 61 65 68 77 84 84 84 84 87 84 81 74 68 68 74 74 74 55
0 0 0 0 0 0 0 0 0 0 0 0 0 0 0 6 16 19 19 19 26 23 19 29 39 61 68 65 61 71 84 84 84 84 81 81 81 84 77 77 71 68 71 68
0 0 0 3 3 0 0 0 0 0 0 0 0 0 6 10 13 10 19 19 32 32 45 39 45 58 65 65 65 68 87 84 84 84 77 81 77 74 68 68 68 68 68 65
0 0 3 3 3 3 3 0 0 0 0 0 0 0 10 6 10 16 19 29 32 29 45 58 55 58 71 65 68 74 81 81 77 77 81 77 71 71 68 68 58 58 58 52
0 3 3 3 3 3 3 3 0 0 0 0 3 3 6 6 10 10 26 35 39 32 39 48 52 58 61 77 74 74 77 81 81 74 77 81 77 71 71 71 65 61 58 48
0 3 3 0 3 3 3 3 0 0 0 0 3 3 10 10 23 26 35 45 45 39 42 35 32 45 58 68 74 74 77 77 77 74 77 77 77 71 68 65 68 65 61 55
0 3 3 0 3 0 3 3 3 0 0 0 0 6 6 16 23 32 35 45 42 42 39 42 35 48 55 61 68 74 74 74 77 74 74 81 74 74 68 68 65 68 65 58
3 3 3 0 0 0 0 0 3 0 0 0 0 6 6 13 13 26 29 35 39 42 42 42 48 48 52 61 61 74 74 74 74 74 74 74 77 71 68 65 65 61 58 55
3 3 0 0 0 0 0 0 0 0 0 0 0 6 6 19 16 26 32 42 48 48 48 52 58 58 68 65 65 65 65 65 71 71 71 71 68 68 68 68 65 65 61 58
0 0 0 0 0 0 0 0 0 0 0 0 6 3 13 16 29 39 45 55 58 58 71 65 65 68 71 71 71 68 68 65 65 68 71 74 68 65 65 61 61 65 61 58
3 0 0 0 0 0 0 0 0 0 0 0 6 10 16 29 42 42 45 61 65 65 65 68 68 68 81 77 77 68 65 61 61 65 68 68 65 58 58 58 58 61 65 42
3 3 0 0 0 0 0 0 0 0 0 3 3 16 26 35 39 45 55 61 65 74 71 65 65 65 65 68 65 58 65 68 65 65 68 65 61 61 61 58 55 55 52 45
6 6 3 0 0 0 0 0 0 3 6 3 6 23 32 39 42 52 55 65 68 61 58 65 65 65 68 68 65 65 58 58 65 61 58 58 58 61 61 58 55 52 48 48
6 6 3 0 3 0 3 6 10 13 16 23 32 35 35 39 45 52 58 65 55 55 58 58 58 61 65 68 65 65 58 55 61 58 48 48 55 61 61 61 58 55 58 55
6 6 0 0 0 0 3 10 13 23 19 29 32 39 35 39 42 45 45 42 52 52 52 55 55 52 55 58 58 61 61 52 55 48 45 48 52 55 58 55 58 58 55 52
3 6 0 0 0 0 3 6 13 23 23 39 42 45 39 39 39 42 45 42 48 48 52 52 55 52 52 48 48 55 55 55 48 48 52 48 52 55 52 55 52 52 48 48
0 0 0 0 0 0 6 19 19 10 32 45 42 42 45 52 55 48 39 42 48 48 52 52 55 55 55 52 52 55 48 48 52 48 48 48 45 42 45 45 52 55 45 48
0 0 0 0 0 0 16 23 29 48 48 48 52 52 52 45 42 39 29 35 42 42 42 52 52 55 55 55 55 52 52 48 52 48 45 45 39 42 39 42 42 42 35 39
6 6 0 10 10 23 19 26 35 42 45 45 48 48 42 45 35 35 35 35 39 42 42 42 42 45 48 52 52 48 45 45 42 42 39 35 35 32 32 32 29 32 29 35
3 10 23 19 16 16 23 23 26 35 45 48 45 35 35 35 29 23 19 29 29 32 35 39 42 39 42 39 39 42 35 35 35 32 35 32 29 23 19 23 16 23 26 29
13 16 19 23 16 23 32 32 35 35 35 32 32 29 26 19 19 13 19 19 29 23 26 29 39 35 32 29 29 29 26 32 35 32 29 32 32 23 19 19 16 16 26 19
10 23 19 16 19 32 26 26 23 29 29 19 23 23 19 19 19 16 16 19 19 19 23 23 26 32 29 26 26 29 29 29 32 29 29 29 26 26 16 13 10 6 10 6

GEFSCGP_con_cape1000_240.txt.gz
Probability
0 0 0 0 0 0 0 0 0 0 0 0 3 3 6 6 6 6 6 6 10 10 13 16 23 42 71 84 87 90 90 90 90 87 87 87 87 90 87 74 71 68 71 68
0 0 0 0 0 0 0 0 0 0 0 3 3 3 6 6 6 6 3 13 13 10 19 35 39 45 74 84 87 87 90 87 87 90 90 87 87 87 81 77 77 77 71 68
0 0 0 0 0 0 0 0 0 0 0 3 3 3 6 6 10 10 6 6 6 3 16 39 39 52 61 84 87 87 87 90 90 87 87 84 84 87 87 84 77 71 71 71
0 0 0 0 0 0 0 0 0 0 0 0 0 0 10 10 3 3 10 10 6 3 13 39 39 52 61 74 81 87 87 87 87 87 87 87 84 81 87 87 81 81 81 74
0 0 0 0 0 0 0 0 0 0 0 0 3 3 6 10 3 3 6 16 10 13 23 42 45 68 61 71 77 87 87 87 87 87 84 84 81 84 90 81 81 81 77 74
0 0 0 0 0 0 0 0 0 0 0 0 0 3 10 10 3 6 6 3 19 19 26 39 52 68 68 71 81 84 87 90 90 87 87 84 84 84 84 87 81 77 77 74
0 0 0 0 0 0 0 0 0 0 0 0 0 6 3 0 0 6 10 6 19 23 32 42 52 61 71 71 74 77 87 87 87 87 90 84 84 77 84 81 77 74 71 71
0 0 0 0 0 0 0 0 0 0 0 0 3 6 3 3 6 6 6 3 16 32 35 32 55 68 71 74 77 81 87 87 87 87 84 81 81 81 77 77 74 74 71 68
0 0 0 0 0 0 0 0 0 0 0 0 6 6 6 6 10 6 13 16 29 26 35 35 48 55 58 71 74 81 87 87 87 87 84 81 81 81 77 81 74 74 74 65
0 0 0 0 0 0 0 0 0 0 6 0 6 3 6 3 13 16 19 16 23 26 35 35 42 45 55 65 74 81 87 94 87 81 81 74 77 81 81 81 81 81 74 71
0 0 0 0 0 0 0 0 0 0 0 0 0 6 6 13 23 16 19 32 29 29 42 42 45 45 48 61 65 77 81 84 84 84 84 81 81 81 77 81 77 77 74 71
0 0 0 0 0 0 0 0 0 0 10 0 0 10 13 10 10 23 29 39 39 42 42 45 48 55 55 65 68 77 77 74 74 81 84 81 81 81 84 74 74 74 71 71
0 0 0 0 0 0 0 0 0 0 3 0 0 13 10 13 19 29 35 39 45 45 45 45 45 58 65 68 71 77 77 77 74 74 77 81 81 81 81 77 74 68 71 71
0 0 0 0 0 0 0 0 0 0 0 0 3 13 19 16 19 32 35 42 42 45 68 58 65 71 77 77 77 77 71 71 71 77 77 71 77 81 77 68 71 71 71 71
0 0 0 0 0 0 0 0 0 0 0 0 10 10 23 23 32 29 45 48 52 61 68 71 74 77 84 77 74 74 74 74 71 71 71 68 68 77 74 68 68 71 71 65
0 0 0 0 0 0 0 0 0 0 0 0 10 10 26 32 39 45 48 55 61 58 61 68 71 74 74 81 77 74 71 77 81 74 74 71 68 65 68 68 68 68 68 65
0 0 0 0 0 0 0 0 0 0 0 6 10 23 29 32 48 52 65 68 65 65 68 68 71 74 74 71 74 74 71 71 74 74 71 68 68 65 65 61 68 71 71 71
3 23 13 0 3 6 3 0 0 3 0 6 13 23 29 35 52 58 68 71 71 65 65 65 61 61 65 65 68 68 65 61 65 68 65 65 65 65 65 61 61 68 71 71
3 23 3 0 0 3 0 0 3 3 6 10 10 35 39 48 48 45 45 65 65 61 61 61 55 55 58 65 68 65 65 65 61 61 68 61 61 61 65 58 61 65 68 68
0 23 0 0 3 0 3 0 3 3 13 26 32 39 55 48 48 48 45 45 45 52 52 52 52 48 52 52 55 58 61 61 61 58 61 68 71 65 61 58 65 68 68 65
0 16 3 3 3 6 6 0 3 10 42 45 42 48 55 52 48 52 45 48 48 48 52 52 52 52 52 52 52 52 58 58 55 58 58 65 74 74 68 68 55 61 61 55
3 0 10 3 3 10 16 16 32 65 58 45 45 55 55 55 42 42 45 45 45 42 45 45 48 48 52 48 48 55 55 52 52 55 55 58 65 52 48 58 61 58 55 48
3 13 13 26 26 48 45 45 48 55 55 55 42 52 48 39 35 39 42 39 39 39 39 45 45 48 48 58 55 55 55 52 48 52 52 48 48 55 48 48 48 42 52 45
6 19 23 32 32 32 32 39 42 45 45 48 45 39 39 39 35 35 29 32 32 32 35 35 39 39 45 48 48 48 55 52 42 42 42 42 42 42 45 39 35 35 32 32
13 16 16 29 26 32 35 39 45 45 32 39 39 35 32 35 32 32 29 29 32 32 32 32 35 32 32 35 35 32 39 48 52 42 42 39 39 39 42 39 32 29 29 29
6 19 16 23 32 32 35 35 32 32 29 29 32 29 29 29 29 26 19 23 29 26 26 26 26 26 26 26 35 29 35 39 45 35 35 35 35 32 29 26 26 16 10 10